Tracking 19717 objects as of 25-Jun-2019
HD Live streaming from Space Station
objects crossing your sky now

GB 2

Track GB 2 now!
10-day predictions
GB 2 is classified as:


NORAD ID: 14144
Int'l Code: 1983-056D
Perigee: 384.2 km
Apogee: 1,746.0 km
Inclination: 63.3 °
Period: 106.4 minutes
Semi major axis: 7436 km
RCS: Unknown
Launch date: June 9, 1983
Source: United States (US)
Launch site: AIR FORCE WESTERN TEST RANGE (AFWTR)
aabbcc
Your satellite tracking list
Your tracking list is empty




NASA's NSSDC Master Catalog

Two Line Element Set (TLE):
1 14144U 83056D   19174.76485417  .00000564  00000-0  56618-4 0  9995
2 14144  63.2930 293.5544 0915659  85.7486 284.7479 13.53891120  8309
Source of the keplerian elements: McCants